Location: Dover
(48.8500°N, 53.9833°W)
Time: 16:00:13
(UTC+00:00)

SAR-Lupe-4 - Pass Details

Date: 14 November 2025
Orbit: 476 x 483 km, 98.1° (Epoch: 03 October)

Event Time Altitude Azimuth Distance (km) Brightness Sun altitude
Rises 21:07:15 0° 172° (S) 2,535 7.3 -11.7°
Reaches altitude 10° 21:09:19 10° 175° (S) 1,660 6.4 -12.0°
Maximum altitude 21:12:51 63° 258° (WSW) 543 4.1 -12.6°
Drops below altitude 10° 21:16:25 10° 340° (NNW) 1,672 6.4 -13.1°
Sets 21:18:30 0° 344° (NNW) 2,556 7.3 -13.5°
